{"data":{"norad_id":65821,"epoch":"2026-09-20T09:36:48.316608Z","epoch_age_seconds":155414,"freshness":"FRESH","line1":"1 65821U 25220E   26263.40055922  .00000056  00000+0  95324-4 0  9996","line2":"2 65821  86.5035  11.6888 0001479 110.4982 249.6311 13.24413048 47523","mean_motion":13.24413048,"eccentricity":0.0001479,"inclination_deg":86.5035,"raan_deg":11.6888,"arg_perigee_deg":110.4982,"mean_anomaly_deg":249.6311,"bstar":9.5324e-5,"rev_number":4752,"period_min":108.72740963814,"perigee_km":1166.7945475299,"apogee_km":1169.0266684124,"semimajor_km":7546.0476079711,"source":"CELESTRAK","updated_at":"2026-09-21T09:00:15.572489Z"}}